This demonstration page uses our WeatherBlox Daily Observations layout. Learn more.

Left ArrowRight Arrow

Hourly Observations for February 25, 2022

Temp ( °F °C ) Dew Point ( °F °C ) Humidity (%) Winds ( mph kmh ) Pressure ( in mb ) Visibility ( mi km ) Precip ( " mm )
12:56 am 00:56 Clear 6 -14.7 -1 -18.5 73 73 WNW 9 15 30.54 1034 10 16 0.00 0.00
1:56 am 01:56 Clear 5 -15.2 -3 -19.2 72 72 WNW 12 19 30.56 1035 10 16 0.00 0.00
2:56 am 02:56 Clear 4 -15.6 -3 -19.7 71 71 NW 8 13 30.58 1036 10 16 0.00 0.00
3:56 am 03:56 Clear 3 -16.2 -5 -20.3 71 71 NW 9 15 30.60 1036 10 16 0.00 0.00
4:56 am 04:56 Clear 2 -16.8 -6 -20.9 71 71 WNW 5 7 30.62 1037 10 16 0.00 0.00
5:56 am 05:56 Clear 1 -17.1 -6 -21.2 71 71 WNW 6 9 30.65 1038 10 16 0.00 0.00
6:56 am 06:56 Clear 1 -17.3 -7 -21.4 71 71 WNW 8 13 30.67 1039 10 16 0.00 0.00
7:56 am 07:56 undefined 2 -16.6 -5 -20.8 70 70 NW 8 13 30.69 1039 10 16 0.00 0.00
8:56 am 08:56 undefined 6 -14.5 -2 -19.1 68 68 WNW 5 7 30.71 1040 10 16 0.00 0.00
9:56 am 09:56 Mostly Sunny 10 -12.4 0 -17.8 64 64 WNW 7 11 30.72 1040 10 16 0.00 0.00
10:56 am 10:56 Mostly Sunny 13 -10.5 0 -17.8 55 55 NW 7 11 30.74 1041 10 16 0.00 0.00
11:56 am 11:56 undefined 16 -8.7 1 -17.3 50 50 WSW 5 7 30.72 1040 9 14 0.00 0.00
12:56 pm 12:56 undefined 20 -6.9 0 -18 41 41 Calm 30.69 1039 10 16 0.00 0.00
1:56 pm 13:56 Sunny 22 -5.6 0 -17.7 38 38 W 3 6 30.65 1038 10 16 0.00 0.00
2:56 pm 14:56 Sunny 25 -4.1 1 -17.3 35 35 WNW 5 7 30.64 1038 10 16 0.00 0.00
3:56 pm 15:56 Sunny 26 -3.5 3 -16.1 37 37 SW 7 11 30.64 1038 10 16 0.00 0.00
4:56 pm 16:56 Sunny 25 -3.7 3 -16.3 37 37 W 3 6 30.63 1037 9 14 0.00 0.00
5:56 pm 17:56 Sunny 24 -4.4 3 -16 40 40 Calm 30.62 1037 10 16 0.00 0.00
6:56 pm 18:56 Clear 22 -5.7 4 -15.5 46 46 Calm 30.62 1037 10 16 0.00 0.00
7:56 pm 19:56 Clear 20 -6.6 4 -15.6 49 49 Calm 30.62 1037 10 16 0.00 0.00
8:56 pm 20:56 Clear 19 -7.4 5 -15.1 54 54 SSE 3 6 30.62 1037 10 16 0.00 0.00
9:56 pm 21:56 Clear 17 -8.4 5 -15.2 58 58 SSE 5 7 30.62 1037 10 16 0.00 0.00
10:56 pm 22:56 Clear 16 -8.8 6 -14.2 65 65 SSE 5 7 30.62 1037 10 16 0.00 0.00
11:56 pm 23:56 Clear 14 -9.9 6 -14.2 71 71 Calm 30.60 1036 10 16 0.00 0.00

Powered by AerisWeather